Weather History for Ludington, MI

Change the Weather History Date:

Thursday, January 3, 2013

  Actual Average Record
Temperature  
Mean Temperature 28 °F -  
Max Temperature 30 °F 31 °F 51 °F (1950)
Min Temperature 27 °F 18 °F -1 °F (1979)
Degree Days  
Heating Degree Days 36    
Moisture  
Dew Point 22 °F    
Average Humidity 74    
Maximum Humidity 78    
Minimum Humidity 69    
Precipitation  
Precipitation 0.00 in - - ()
Sea Level Pressure  
Sea Level Pressure 30.06 in    
Wind  
Wind Speed 7 mph (West)    
Max Wind Speed 17 mph    
Max Gust Speed 23 mph    
Visibility 8 miles    
Events Snow    
Averages and records for this station are not official NWS values.
T = Trace of Precipitation, MM = Missing Value Source: NWS Daily Summary

Daily Weather History Graph

Daily Weather History Graph

Search for Another Location

Airport:

Trip Planner

Search our weather history database for the weather conditions in past years. The results will help you decide how hot, cold, wet, or windy it might be!

Date:

Astronomy

Jan. 03, 2013 Rise Set
Actual Time 8:20 AM EST 5:20 PM EST
Civil Twilight 7:47 AM EST 5:53 PM EST
Nautical Twilight 7:11 AM EST 6:29 PM EST
Astronomical Twilight 6:36 AM EST 7:04 PM EST
Moon No Moon Rise 11:17 AM EST (1/3)
Length of Visible Light 10h 05m
Length of Day
9h 00m
Waning Gibbous, 65% of the Moon is Illuminated
Jan 3
Waning Gibbous
Jan 4
Last Quarter
Jan 11
New
Jan 18
First Quarter
Jan 26
Full

Hourly Weather History & Observations

Time (EST) Temp. Windchill Dew Point Humidity Pressure Visibility Wind Dir Wind Speed Gust Speed Precip Events Conditions
12:15 AM 27.9 °F 20.6 °F 21.6 °F 77% 30.03 in 7.0 mi SSE 6.9 mph - N/A Snow Light Snow
12:35 AM 27.9 °F 20.6 °F 21.2 °F 76% 30.03 in 7.0 mi South 6.9 mph - N/A Snow Light Snow
12:55 AM 27.9 °F 21.5 °F 21.6 °F 77% 30.02 in 7.0 mi SSE 5.8 mph - N/A Snow Light Snow
1:15 AM 27.9 °F 20.6 °F 21.6 °F 77% 30.02 in 10.0 mi South 6.9 mph - N/A Snow Light Snow
1:34 AM 27.9 °F 20.6 °F 21.7 °F 78% 30.02 in 10.0 mi SSW 6.9 mph - N/A   Overcast
1:55 AM 27.9 °F 22.6 °F 21.6 °F 77% 30.02 in 10.0 mi SSW 4.6 mph - N/A   Overcast
2:15 AM 30.2 °F 21.3 °F 23.0 °F 75% 30.01 in 10.0 mi WSW 10.4 mph - N/A   Overcast
2:34 AM 30.2 °F 21.9 °F 23.0 °F 75% 30.02 in 7.0 mi WSW 9.2 mph - N/A Snow Light Snow
2:55 AM 30.2 °F 21.9 °F 23.0 °F 75% 30.02 in 7.0 mi WSW 9.2 mph - N/A Snow Light Snow
3:15 AM 30.2 °F 24.3 °F 23.5 °F 76% 30.02 in 4.0 mi West 5.8 mph - N/A Snow Light Snow
3:34 AM 30.2 °F 25.4 °F 23.9 °F 77% 30.02 in 4.0 mi West 4.6 mph - N/A Snow Light Snow
3:55 AM 30.2 °F 24.3 °F 23.9 °F 77% 30.02 in 4.0 mi WNW 5.8 mph - N/A Snow Light Snow
4:15 AM 30.2 °F 25.4 °F 23.7 °F 77% 30.01 in 7.0 mi WNW 4.6 mph - N/A Snow Light Snow
4:34 AM 29.5 °F 23.4 °F 22.6 °F 76% 30.00 in 7.0 mi West 5.8 mph - N/A   Overcast
4:55 AM 27.9 °F 21.5 °F 21.2 °F 76% 30.00 in 7.0 mi West 5.8 mph - N/A   Overcast
5:15 AM 27.9 °F 21.5 °F 20.8 °F 75% 29.99 in 7.0 mi West 5.8 mph - N/A   Overcast
5:35 AM 27.9 °F 21.5 °F 20.8 °F 75% 29.99 in 7.0 mi West 5.8 mph - N/A   Overcast
5:55 AM 27.9 °F 24.0 °F 20.7 °F 74% 29.99 in 7.0 mi West 3.5 mph - N/A   Overcast
6:15 AM 27.9 °F 22.6 °F 20.3 °F 73% 30.00 in 10.0 mi West 4.6 mph - N/A   Overcast
6:35 AM 27.9 °F 20.6 °F 20.1 °F 73% 30.00 in 7.0 mi West 6.9 mph - N/A   Overcast
6:55 AM 27.9 °F 21.5 °F 20.1 °F 73% 30.01 in 10.0 mi West 5.8 mph - N/A   Overcast
7:14 AM 27.9 °F 19.8 °F 20.3 °F 73% 30.01 in 10.0 mi West 8.1 mph - N/A   Overcast
7:35 AM 27.9 °F 19.8 °F 20.3 °F 73% 30.02 in 7.0 mi West 8.1 mph - N/A   Overcast
7:55 AM 27.9 °F 19.1 °F 20.1 °F 73% 30.03 in 7.0 mi WNW 9.2 mph - N/A Snow Light Snow
8:14 AM 27.9 °F 20.6 °F 20.1 °F 73% 30.02 in 7.0 mi WNW 6.9 mph - N/A   Overcast
8:35 AM 27.9 °F 20.6 °F 20.5 °F 74% 30.03 in 7.0 mi WNW 6.9 mph - N/A   Overcast
8:55 AM 27.9 °F 19.1 °F 20.3 °F 73% 30.04 in 7.0 mi WNW 9.2 mph - N/A   Overcast
9:14 AM 27.9 °F 20.6 °F 20.1 °F 73% 30.04 in 7.0 mi WNW 6.9 mph - N/A   Overcast
9:35 AM 27.9 °F 20.6 °F 19.9 °F 72% 30.04 in 5.0 mi West 6.9 mph - N/A Snow Light Snow
9:55 AM 27.9 °F 21.5 °F 20.3 °F 73% 30.04 in 5.0 mi West 5.8 mph - N/A Snow Light Snow
10:14 AM 27.9 °F 19.8 °F 20.7 °F 74% 30.04 in 5.0 mi West 8.1 mph - N/A Snow Light Snow
10:35 AM 27.9 °F 19.8 °F 20.8 °F 75% 30.05 in 5.0 mi WNW 8.1 mph - N/A Snow Light Snow
10:55 AM 27.9 °F 20.6 °F 21.0 °F 75% 30.06 in 5.0 mi West 6.9 mph - N/A   Haze
11:14 AM 27.9 °F 19.1 °F 21.0 °F 75% 30.06 in 5.0 mi WNW 9.2 mph - N/A Snow Light Snow
11:35 AM 27.9 °F 19.1 °F 21.2 °F 76% 30.06 in 3.0 mi WNW 9.2 mph - N/A Snow Light Snow
11:55 AM 27.9 °F 19.8 °F 21.4 °F 77% 30.07 in 2.5 mi NW 8.1 mph - N/A Snow Light Snow
12:15 PM 27.9 °F 19.1 °F 21.2 °F 76% 30.07 in 4.0 mi NW 9.2 mph - N/A Snow Light Snow
12:35 PM 27.9 °F 19.8 °F 20.5 °F 74% 30.06 in 7.0 mi WNW 8.1 mph - N/A   Overcast
12:55 PM 27.9 °F 24.0 °F 20.7 °F 74% 30.05 in 7.0 mi NW 3.5 mph - N/A   Overcast
1:15 PM 27.9 °F 19.1 °F 20.7 °F 74% 30.05 in 7.0 mi NW 9.2 mph - N/A   Overcast
1:35 PM 30.2 °F 24.3 °F 23.0 °F 75% 30.05 in 7.0 mi NW 5.8 mph - N/A   Overcast
1:55 PM 30.2 °F 25.4 °F 22.8 °F 74% 30.05 in 7.0 mi WNW 4.6 mph - N/A   Overcast
2:15 PM 30.2 °F 24.3 °F 23.0 °F 75% 30.05 in 7.0 mi NW 5.8 mph - N/A   Overcast
2:35 PM 30.2 °F 21.9 °F 23.0 °F 75% 30.05 in 7.0 mi NW 9.2 mph - N/A   Overcast
2:54 PM 30.2 °F 21.9 °F 23.0 °F 75% 30.06 in 7.0 mi WNW 9.2 mph - N/A   Overcast
3:15 PM 30.2 °F 21.9 °F 23.0 °F 75% 30.06 in 7.0 mi WNW 9.2 mph - N/A   Overcast
3:35 PM 30.2 °F 23.4 °F 23.0 °F 75% 30.07 in 7.0 mi NW 6.9 mph - N/A   Overcast
3:54 PM 30.2 °F 24.3 °F 23.0 °F 75% 30.08 in 7.0 mi WNW 5.8 mph - N/A   Overcast
4:35 PM 30.2 °F 24.3 °F 22.6 °F 73% 30.09 in 10.0 mi WNW 5.8 mph - N/A   Overcast
4:54 PM 30.2 °F 22.6 °F 21.7 °F 71% 30.09 in 10.0 mi WNW 8.1 mph - N/A   Overcast
5:15 PM 30.2 °F 23.4 °F 21.7 °F 71% 30.10 in 10.0 mi WNW 6.9 mph - N/A   Overcast
5:34 PM 30.2 °F 24.3 °F 21.9 °F 71% 30.10 in 10.0 mi WNW 5.8 mph - N/A   Overcast
5:55 PM 30.2 °F 25.4 °F 21.7 °F 71% 30.11 in 10.0 mi West 4.6 mph - N/A   Overcast
6:15 PM 30.2 °F 25.4 °F 21.2 °F 69% 30.12 in 10.0 mi WNW 4.6 mph - N/A   Overcast
6:34 PM 30.2 °F 22.6 °F 21.6 °F 70% 30.12 in 10.0 mi West 8.1 mph - N/A   Overcast
6:55 PM 30.2 °F 21.9 °F 21.7 °F 71% 30.12 in 10.0 mi WNW 9.2 mph - N/A   Overcast
7:15 PM 30.2 °F 21.9 °F 21.9 °F 71% 30.12 in 10.0 mi West 9.2 mph - N/A   Overcast
7:35 PM 30.2 °F 21.3 °F 22.1 °F 72% 30.12 in 10.0 mi West 10.4 mph - N/A   Overcast
7:55 PM 30.2 °F 22.6 °F 22.6 °F 73% 30.13 in 10.0 mi West 8.1 mph 16.1 mph N/A   Overcast
8:15 PM 30.2 °F 21.9 °F 23.0 °F 75% 30.13 in 7.0 mi WNW 9.2 mph 20.7 mph N/A   Overcast
8:35 PM 28.0 °F 18.1 °F 21.0 °F 75% 30.13 in 7.0 mi West 11.5 mph 18.4 mph N/A   Overcast
8:55 PM 27.9 °F 16.8 °F 21.0 °F 75% 30.12 in 7.0 mi West 13.8 mph 21.9 mph N/A   Overcast
9:14 PM 30.2 °F 21.3 °F 23.0 °F 75% 30.12 in 10.0 mi West 10.4 mph 19.6 mph N/A   Overcast
9:35 PM 30.2 °F 20.8 °F 22.6 °F 73% 30.11 in 10.0 mi West 11.5 mph 19.6 mph N/A   Overcast
9:54 PM 30.2 °F 20.2 °F 22.1 °F 72% 30.11 in 10.0 mi WSW 12.7 mph 20.7 mph N/A   Overcast
10:15 PM 30.2 °F 20.8 °F 22.3 °F 72% 30.11 in 10.0 mi West 11.5 mph 20.7 mph N/A   Overcast
10:35 PM 30.2 °F 18.5 °F 22.5 °F 73% 30.10 in 10.0 mi WSW 17.3 mph 20.7 mph N/A   Overcast
10:54 PM 30.2 °F 21.3 °F 22.3 °F 72% 30.10 in 10.0 mi West 10.4 mph 17.3 mph N/A   Overcast
11:15 PM 30.2 °F 19.3 °F 22.5 °F 73% 30.10 in 10.0 mi West 15.0 mph 21.9 mph N/A   Overcast
11:35 PM 30.2 °F 20.8 °F 22.8 °F 74% 30.10 in 10.0 mi West 11.5 mph 23.0 mph N/A   Overcast
11:55 PM 30.2 °F 19.8 °F 23.0 °F 75% 30.09 in 10.0 mi West 13.8 mph 19.6 mph N/A   Overcast